Location: Unspecified
(43.4680°N, 87.1740°E)
Time: 09:12:20
(UTC+00:00)

Cosmos 2297 Rocket - Pass Details

Date: 17 January 2020
Orbit: 838 x 845 km, 71.0° (Epoch: 17 February)

Event Time Altitude Azimuth Distance (km) Brightness Sun altitude
Exits shadow 23:18:07 69° 271° (W) 905 2.0 -25.4°
Maximum altitude 23:18:24 70° 249° (WSW) 897 2.0 -25.3°
Drops below altitude 10° 23:24:01 10° 166° (SSE) 2,458 4.8 -24.3°
Sets 23:26:27 0° 164° (SSE) 3,389 5.6 -23.9°
